Regional Weather Roundup
Issued by NWS Northern Indiana

Home | Current Version | Previous Version | Text Only | Print | Product List | Glossary On
Versions: 1 2 3 4 5 6 7 8 9 10 11 12 13 14 15 16 17 18 19 20 21 22 23 24 25 26 27 28 29 30 31 32 33 34 35 36 37 38 39 40 41 42 43 44 45 46 47 48 49 50
000
ASUS43 KIWX 260610
RWRIWX

KIWX WEATHER ROUNDUP
NATIONAL WEATHER SERVICE NORTHERN INDIANA
200 AM EDT SUN APR 26 2015

NOTE: "FAIR" INDICATES FEW OR NO CLOUDS BELOW 12,000 FEET WITH NO
SIGNIFICANT WEATHER AND/OR OBSTRUCTIONS TO VISIBILITY.

* THESE STATIONS ARE NOT UNDER NWS QUALITY CONTROL. THEY ALSO MAY NOT
  REPORT WEATHER SUCH AS PRECIPITATION OR FOG.

INZ001>027-260700-
NORTHERN INDIANA

CITY           SKY/WX    TMP DP  RH WIND       PRES   REMARKS
GARY*          CLEAR     38  32  78 CALM      29.86R
VALPARAISO     CLEAR     39  35  86 CALM      29.84R
6HR MIN TEMP:  39; 6HR MAX TEMP:  45; 6HR PCP: TRACE;

MICHIGAN CITY* CLEAR     34  34 100 CALM      29.85S
LAPORTE*       PTCLDY    36  36 100 N5        29.84R
6HR MIN TEMP:  36; 6HR MAX TEMP:  47;

KNOX*          PTCLDY    37  30  75 NE3       29.82S
SOUTH BEND     CLEAR     42  33  70 NE7       29.84S
6HR MIN TEMP:  38; 6HR MAX TEMP:  48;

GOSHEN         CLEAR     37  31  78 N7        29.83R
6HR MIN TEMP:  35; 6HR MAX TEMP:  44; 6HR PCP: TRACE;

MONTICELLO*    CLOUDY    42  35  78 NE7       29.81R
6HR MIN TEMP:  42; 6HR MAX TEMP:  46;

LOGANSPORT*    CLOUDY    41  32  70 N7        29.81S
ROCHESTER*     PTCLDY    43  36  75 NE5       29.83R
WARSAW*        PTCLDY    37  34  87 NE3       29.83R
ANGOLA*        CLEAR     36  30  80 NE3       29.83R
FORT WAYNE     CLOUDY    40  32  73 N9        29.81S
6HR MIN TEMP:  40; 6HR MAX TEMP:  42; 6HR PCP:  0.01;

HUNTINGTON*    MOCLDY    40  32  71 NE7       29.80S
6HR MIN TEMP:  40; 6HR MAX TEMP:  42;

PERU/GRISSOM   CLOUDY    42  34  74 NE10      29.79S
6HR MIN TEMP:  42; 6HR MAX TEMP:  45;

MARION*        CLOUDY    41  29  63 NE12      29.79S
6HR MIN TEMP:  29; 6HR MAX TEMP:  59;


$$
INZ028>050-260700-
CENTRAL INDIANA

CITY           SKY/WX    TMP DP  RH WIND       PRES   REMARKS
LAFAYETTE      CLOUDY    43  33  68 NE9       29.80R
6HR MIN TEMP:  43; 6HR MAX TEMP:  46;

KOKOMO*        MOCLDY    41  34  75 NE12      29.79S
6HR MIN TEMP:  41; 6HR MAX TEMP:  45;

MUNCIE*        CLOUDY    42  31  64 NE15      29.76F
6HR MIN TEMP:  41; 6HR MAX TEMP:  46;

INDIANAPOLIS   CLOUDY    44  33  65 NE10      29.74R
6HR MIN TEMP:  44; 6HR MAX TEMP:  47; 6HR PCP: TRACE;


$$
MIZ043>046-050>051-056>058-064>065-071>073-077>080-260700-
SOUTHWEST LOWER MICHIGAN

CITY           SKY/WX    TMP DP  RH WIND       PRES   REMARKS
BATTLE CREEK   CLEAR     39  27  62 NE6       29.86R
6HR MIN TEMP:  38; 6HR MAX TEMP:  51;

BENTON HARBOR  CLEAR     41  28  60 N3        29.86R
6HR MIN TEMP:  40; 6HR MAX TEMP:  48;

COLDWATER*     CLEAR     37  27  65 NE6       29.84R
6HR MIN TEMP:  37; 6HR MAX TEMP:  46;

HILLSDALE*     CLEAR     40  26  57 N8        29.83R
HOLLAND        CLEAR     42  25  50 NE5       29.89R
6HR MIN TEMP:  42; 6HR MAX TEMP:  55;

GRAND RAPIDS   CLEAR     37  24  59 NE7       29.88R
6HR MIN TEMP:  37; 6HR MAX TEMP:  49;

KALAMAZOO      CLEAR     39  27  62 NE5       29.86R
6HR MIN TEMP:  39; 6HR MAX TEMP:  50;

STURGIS*       CLEAR     39  27  60 CALM      29.84R
THREE RIVERS*  FAIR      39  28  64 NE6       29.85S
6HR MIN TEMP:  39; 6HR MAX TEMP:  48;


$$
OHZ001>008-015>018-024>025-260700-
NORTHWEST OHIO

CITY           SKY/WX    TMP DP  RH WIND       PRES   REMARKS
WAUSEON*       MIX PCPN  41  28  60 NE13G20   29.82S
DEFIANCE       PTCLDY    40  30  67 N6        29.82S
6HR MIN TEMP:  40; 6HR MAX TEMP:  45;

FINDLAY        MOCLDY    42  33  70 NE10      29.79R
6HR MIN TEMP:  41; 6HR MAX TEMP:  43; 6HR PCP: TRACE;

TOLEDO EXPRESS PTCLDY    42  26  53 N10       29.81R
6HR MIN TEMP:  42; 6HR MAX TEMP:  44;

TOLEDO METCALF PTCLDY    43  28  55 NE13G18   29.82R
6HR MIN TEMP:  43; 6HR MAX TEMP:  45;

LIMA           CLOUDY    40  31  70 NE13      29.77S
6HR MIN TEMP:  39; 6HR MAX TEMP:  40; 6HR PCP: TRACE;


$$
AND FOR LAKE MICHIGAN COASTAL AND OPEN LAKE BUOY OBSERVATIONS

STATION/POSITION TEMP    WIND        PRES    VSBY  WAVE
                 AIR SEA DIR/SP/G                  HT/PER
                 (F)     (DEG/KT/KT) (MB)    (MI)  (FT/S)
CALUMET HARBOR    40     350/  3/  6   N/A
MICHIGAN CITY     41      10/  7/  8   N/A
BURNS HARBOR      40      20/  6/  9 1011.2S
SAINT JOSEPH      42      10/  3/  4 1012.2R
MICHIGAN CITY     39 45   40/  6/  8   N/A           2/ 5

$$
&&


USA.gov is the U.S. government's official web portal to all federal, state and local government web resources and services.